Time,TemperatureF,DewpointF,PressureIn,WindDirection,WindDirectionDegrees,WindSpeedMPH,WindSpeedGustMPH,Humidity,HourlyPrecipIn,Conditions,Clouds,dailyrainin,SoftwareType,DateUTC
2013-02-20 00:01:00,58.0,34.0,30.05,SSE,150,3.0,11.0,41,0.00,,,0.00,,2013-02-20 06:01:00,
2013-02-20 00:11:00,58.0,35.0,30.06,SSE,154,2.0,9.0,42,0.00,,,0.00,,2013-02-20 06:11:00,
2013-02-20 00:21:00,58.0,35.0,30.06,SSE,154,2.0,9.0,42,0.00,,,0.00,,2013-02-20 06:21:00,
2013-02-20 00:31:00,58.0,35.0,30.04,SE,137,5.0,10.0,42,0.00,,,0.00,,2013-02-20 06:31:00,
2013-02-20 00:42:00,58.0,35.0,30.04,SE,137,5.0,10.0,42,0.00,,,0.00,,2013-02-20 06:42:00,
2013-02-20 00:52:00,57.0,34.0,30.04,SE,134,3.0,11.0,42,0.00,,,0.00,,2013-02-20 06:52:00,
2013-02-20 01:01:00,57.0,35.0,30.03,SE,128,5.0,12.0,43,0.00,,,0.00,,2013-02-20 07:01:00,
2013-02-20 01:11:00,57.0,35.0,30.03,SE,128,5.0,12.0,43,0.00,,,0.00,,2013-02-20 07:11:00,
2013-02-20 01:21:00,57.0,35.0,30.01,ESE,123,6.0,11.0,44,0.00,,,0.00,,2013-02-20 07:21:00,
2013-02-20 01:31:00,57.0,35.0,30.03,SSE,159,5.0,10.0,44,0.00,,,0.00,,2013-02-20 07:31:00,
2013-02-20 01:41:00,57.0,35.0,30.03,SSE,159,5.0,10.0,44,0.00,,,0.00,,2013-02-20 07:41:00,
2013-02-20 01:52:00,57.0,35.0,30.02,SE,142,5.0,11.0,44,0.00,,,0.00,,2013-02-20 07:52:00,
2013-02-20 02:05:00,57.0,35.0,30.02,SE,142,3.0,10.0,44,0.00,,,0.00,,2013-02-20 08:05:00,
2013-02-20 02:11:00,57.0,35.0,30.02,SE,142,3.0,10.0,44,0.00,,,0.00,,2013-02-20 08:11:00,
2013-02-20 02:21:00,56.0,34.0,30.01,SE,141,5.0,13.0,44,0.00,,,0.00,,2013-02-20 08:21:00,
2013-02-20 02:31:00,56.0,34.0,30.00,SSE,148,5.0,14.0,44,0.00,,,0.00,,2013-02-20 08:31:00,
2013-02-20 02:41:00,56.0,34.0,30.00,SSE,148,5.0,14.0,44,0.00,,,0.00,,2013-02-20 08:41:00,
2013-02-20 02:52:00,56.0,35.0,29.98,SE,127,6.0,11.0,45,0.00,,,0.00,,2013-02-20 08:52:00,
2013-02-20 03:01:00,56.0,35.0,30.01,SE,142,4.0,11.0,45,0.00,,,0.00,,2013-02-20 09:01:00,
2013-02-20 03:11:00,56.0,35.0,30.01,SE,142,4.0,11.0,45,0.00,,,0.00,,2013-02-20 09:11:00,
2013-02-20 03:21:00,56.0,35.0,30.01,SE,138,3.0,11.0,45,0.00,,,0.00,,2013-02-20 09:21:00,
2013-02-20 03:31:00,56.0,35.0,30.01,SE,130,0.0,9.0,45,0.00,,,0.00,,2013-02-20 09:31:00,
2013-02-20 03:42:00,56.0,35.0,30.01,SE,130,0.0,9.0,45,0.00,,,0.00,,2013-02-20 09:42:00,
2013-02-20 03:52:00,56.0,33.0,30.00,SE,134,7.0,14.0,42,0.00,,,0.00,,2013-02-20 09:52:00,
2013-02-20 04:01:00,56.0,33.0,29.99,SE,146,5.0,15.0,42,0.00,,,0.00,,2013-02-20 10:01:00,
2013-02-20 04:12:00,56.0,33.0,29.99,SE,146,5.0,15.0,42,0.00,,,0.00,,2013-02-20 10:12:00,
2013-02-20 04:22:00,56.0,33.0,29.98,SE,135,5.0,11.0,42,0.00,,,0.00,,2013-02-20 10:22:00,
2013-02-20 04:31:00,55.0,33.0,30.00,South,180,4.0,13.0,43,0.00,,,0.00,,2013-02-20 10:31:00,
2013-02-20 04:41:00,55.0,33.0,30.00,South,180,4.0,13.0,43,0.00,,,0.00,,2013-02-20 10:41:00,
2013-02-20 04:52:00,55.0,33.0,29.99,SSE,147,8.0,16.0,44,0.00,,,0.00,,2013-02-20 10:52:00,
2013-02-20 05:02:00,55.0,34.0,29.99,SE,133,9.0,16.0,45,0.00,,,0.00,,2013-02-20 11:02:00,
2013-02-20 05:11:00,55.0,34.0,29.99,SE,133,9.0,16.0,45,0.00,,,0.00,,2013-02-20 11:11:00,
2013-02-20 05:21:00,55.0,34.0,29.99,SE,133,9.0,16.0,45,0.00,,,0.00,,2013-02-20 11:21:00,
2013-02-20 05:32:00,54.0,35.0,29.97,SSE,158,8.0,17.0,49,0.00,,,0.00,,2013-02-20 11:32:00,
2013-02-20 05:41:00,54.0,35.0,29.97,SSE,158,8.0,17.0,49,0.00,,,0.00,,2013-02-20 11:41:00,
2013-02-20 05:52:00,54.0,37.0,29.95,SE,142,11.0,18.0,52,0.00,,,0.00,,2013-02-20 11:52:00,
2013-02-20 06:02:00,54.0,37.0,29.95,SSE,159,9.0,17.0,53,0.00,,,0.00,,2013-02-20 12:02:00,
2013-02-20 06:12:00,54.0,37.0,29.95,SSE,159,9.0,17.0,53,0.00,,,0.00,,2013-02-20 12:12:00,
2013-02-20 06:21:00,54.0,37.0,29.93,SE,144,8.0,17.0,53,0.00,,,0.00,,2013-02-20 12:21:00,
2013-02-20 06:32:00,53.0,37.0,29.91,ESE,112,11.0,23.0,54,0.00,,,0.00,,2013-02-20 12:32:00,
2013-02-20 06:42:00,53.0,37.0,29.91,ESE,112,11.0,23.0,54,0.00,,,0.00,,2013-02-20 12:42:00,
2013-02-20 06:53:00,53.0,37.0,29.92,SSE,159,7.0,14.0,55,0.00,,,0.00,,2013-02-20 12:53:00,
2013-02-20 07:01:00,53.0,38.0,29.91,SE,128,8.0,20.0,57,0.00,,,0.00,,2013-02-20 13:01:00,
2013-02-20 07:11:00,53.0,38.0,29.91,SE,128,8.0,20.0,57,0.00,,,0.00,,2013-02-20 13:11:00,
2013-02-20 07:22:00,53.0,39.0,29.91,SE,128,9.0,24.0,59,0.00,,,0.00,,2013-02-20 13:22:00,
2013-02-20 07:31:00,53.0,40.0,29.91,South,171,8.0,18.0,61,0.00,,,0.00,,2013-02-20 13:31:00,
2013-02-20 07:42:00,53.0,40.0,29.91,South,171,8.0,18.0,61,0.00,,,0.00,,2013-02-20 13:42:00,
2013-02-20 07:52:00,53.0,40.0,29.91,South,171,8.0,18.0,61,0.00,,,0.00,,2013-02-20 13:52:00,
2013-02-20 08:01:00,53.0,40.0,29.93,ESE,109,6.0,17.0,61,0.00,,,0.00,,2013-02-20 14:01:00,
2013-02-20 08:11:00,53.0,40.0,29.93,ESE,109,6.0,17.0,61,0.00,,,0.00,,2013-02-20 14:11:00,
2013-02-20 08:21:00,53.0,40.0,29.93,SE,140,9.0,16.0,62,0.00,,,0.00,,2013-02-20 14:21:00,
2013-02-20 08:32:00,53.0,41.0,29.91,SE,128,6.0,15.0,63,0.00,,,0.00,,2013-02-20 14:32:00,
2013-02-20 08:42:00,53.0,41.0,29.91,SE,128,6.0,15.0,63,0.00,,,0.00,,2013-02-20 14:42:00,
2013-02-20 08:52:00,53.0,41.0,29.93,SSE,150,8.0,18.0,63,0.00,,,0.00,,2013-02-20 14:52:00,
2013-02-20 09:01:00,53.0,41.0,29.95,ESE,110,7.0,12.0,64,0.00,,,0.00,,2013-02-20 15:01:00,
2013-02-20 09:11:00,53.0,41.0,29.95,ESE,110,7.0,12.0,64,0.00,,,0.00,,2013-02-20 15:11:00,
2013-02-20 09:22:00,53.0,41.0,29.98,SE,128,0.0,9.0,64,0.00,,,0.00,,2013-02-20 15:22:00,
2013-02-20 09:32:00,53.0,42.0,29.98,SE,128,0.0,0.0,65,0.00,,,0.00,,2013-02-20 15:32:00,
2013-02-20 09:42:00,53.0,42.0,29.98,SE,128,0.0,0.0,65,0.00,,,0.00,,2013-02-20 15:42:00,
2013-02-20 09:52:00,53.0,42.0,29.96,SE,128,4.0,8.0,66,0.00,,,0.00,,2013-02-20 15:52:00,
2013-02-20 10:01:00,52.0,41.0,29.93,ESE,116,5.0,12.0,66,0.00,,,0.00,,2013-02-20 16:01:00,
2013-02-20 10:11:00,52.0,41.0,29.93,ESE,116,5.0,12.0,66,0.00,,,0.00,,2013-02-20 16:11:00,
2013-02-20 10:21:00,53.0,42.0,29.93,ESE,122,7.0,12.0,66,0.00,,,0.00,,2013-02-20 16:21:00,
2013-02-20 10:32:00,53.0,42.0,29.93,SE,136,5.0,12.0,67,0.00,,,0.00,,2013-02-20 16:32:00,
2013-02-20 10:41:00,53.0,42.0,29.93,SE,136,5.0,12.0,67,0.00,,,0.00,,2013-02-20 16:41:00,
2013-02-20 10:52:00,53.0,43.0,29.92,SSE,151,5.0,12.0,68,0.00,,,0.00,,2013-02-20 16:52:00,
2013-02-20 11:01:00,53.0,43.0,29.91,SE,133,7.0,15.0,70,0.00,,,0.00,,2013-02-20 17:01:00,
2013-02-20 11:11:00,54.0,45.0,29.90,SE,128,7.0,17.0,71,0.00,,,0.00,,2013-02-20 17:11:00,
2013-02-20 11:21:00,54.0,45.0,29.90,SE,128,7.0,17.0,71,0.00,,,0.00,,2013-02-20 17:21:00,
2013-02-20 11:32:00,54.0,45.0,29.90,SSE,162,7.0,15.0,72,0.00,,,0.00,,2013-02-20 17:32:00,
2013-02-20 11:42:00,54.0,45.0,29.90,SSE,162,7.0,15.0,72,0.00,,,0.00,,2013-02-20 17:42:00,
2013-02-20 11:52:00,54.0,46.0,29.90,SE,126,6.0,12.0,73,0.00,,,0.00,,2013-02-20 17:52:00,
2013-02-20 12:02:00,54.0,46.0,29.90,SE,125,8.0,17.0,74,0.00,,,0.00,,2013-02-20 18:02:00,
2013-02-20 12:11:00,54.0,46.0,29.90,SE,125,8.0,17.0,74,0.00,,,0.00,,2013-02-20 18:11:00,
2013-02-20 12:21:00,55.0,47.0,29.89,SE,139,7.0,16.0,75,0.00,,,0.00,,2013-02-20 18:21:00,
2013-02-20 12:32:00,55.0,47.0,29.89,SE,139,7.0,16.0,75,0.00,,,0.00,,2013-02-20 18:32:00,
2013-02-20 12:42:00,55.0,47.0,29.89,SE,139,7.0,16.0,75,0.00,,,0.00,,2013-02-20 18:42:00,
2013-02-20 12:52:00,55.0,48.0,29.86,ESE,115,5.0,16.0,76,0.00,,,0.00,,2013-02-20 18:52:00,
2013-02-20 13:01:00,55.0,48.0,29.86,ESE,115,5.0,16.0,76,0.00,,,0.00,,2013-02-20 19:01:00,
2013-02-20 13:11:00,55.0,48.0,29.86,ESE,115,5.0,16.0,76,0.00,,,0.00,,2013-02-20 19:11:00,
2013-02-20 13:21:00,55.0,48.0,29.85,SE,131,5.0,13.0,78,0.00,,,0.00,,2013-02-20 19:21:00,
2013-02-20 13:31:00,55.0,49.0,29.83,SE,135,5.0,11.0,79,0.00,,,0.00,,2013-02-20 19:31:00,
2013-02-20 13:42:00,55.0,49.0,29.83,SE,135,5.0,11.0,79,0.00,,,0.00,,2013-02-20 19:42:00,
2013-02-20 13:52:00,55.0,49.0,29.82,SE,126,6.0,14.0,79,0.00,,,0.00,,2013-02-20 19:52:00,
2013-02-20 14:01:00,55.0,49.0,29.81,ESE,119,5.0,13.0,80,0.00,,,0.00,,2013-02-20 20:01:00,
2013-02-20 14:11:00,55.0,49.0,29.80,ESE,123,7.0,12.0,81,0.00,,,0.00,,2013-02-20 20:11:00,
2013-02-20 14:21:00,55.0,49.0,29.80,ESE,123,7.0,12.0,81,0.00,,,0.00,,2013-02-20 20:21:00,
2013-02-20 14:31:00,55.0,50.0,29.79,ESE,117,4.0,11.0,83,0.00,,,0.00,,2013-02-20 20:31:00,
2013-02-20 14:41:00,55.0,50.0,29.79,ESE,121,5.0,12.0,83,0.00,,,0.00,,2013-02-20 20:41:00,
2013-02-20 14:51:00,55.0,50.0,29.79,ESE,121,5.0,12.0,83,0.00,,,0.00,,2013-02-20 20:51:00,
2013-02-20 15:01:00,55.0,50.0,29.79,ESE,121,5.0,12.0,83,0.00,,,0.00,,2013-02-20 21:01:00,
2013-02-20 15:11:00,55.0,51.0,29.78,ESE,119,2.0,8.0,85,0.00,,,0.00,,2013-02-20 21:11:00,
2013-02-20 15:21:00,55.0,51.0,29.78,ESE,119,2.0,8.0,85,0.00,,,0.00,,2013-02-20 21:21:00,
2013-02-20 15:31:00,55.0,51.0,29.77,ESE,114,3.0,9.0,86,0.00,,,0.00,,2013-02-20 21:31:00,
2013-02-20 15:42:00,55.0,51.0,29.77,ESE,114,3.0,9.0,86,0.00,,,0.00,,2013-02-20 21:42:00,
2013-02-20 15:52:00,54.0,50.0,29.77,ESE,102,3.0,9.0,87,0.00,,,0.00,,2013-02-20 21:52:00,
2013-02-20 16:01:00,54.0,51.0,29.76,East,96,1.0,9.0,88,0.00,,,0.00,,2013-02-20 22:01:00,
2013-02-20 16:11:00,54.0,51.0,29.76,East,96,1.0,9.0,88,0.00,,,0.00,,2013-02-20 22:11:00,
2013-02-20 16:21:00,54.0,51.0,29.76,East,96,1.0,9.0,88,0.00,,,0.00,,2013-02-20 22:21:00,
2013-02-20 16:31:00,53.0,50.0,29.73,ESE,123,5.0,13.0,89,0.00,,,0.00,,2013-02-20 22:31:00,
2013-02-20 16:42:00,53.0,50.0,29.73,ESE,123,5.0,13.0,89,0.00,,,0.00,,2013-02-20 22:42:00,
2013-02-20 16:51:00,53.0,50.0,29.74,ESE,103,2.0,12.0,90,0.00,,,0.00,,2013-02-20 22:51:00,
2013-02-20 17:01:00,53.0,50.0,29.73,ESE,105,2.0,7.0,90,0.00,,,0.00,,2013-02-20 23:01:00,
2013-02-20 17:12:00,53.0,50.0,29.73,ESE,105,2.0,7.0,90,0.00,,,0.00,,2013-02-20 23:12:00,
2013-02-20 17:22:00,53.0,50.0,29.73,ESE,105,2.0,7.0,90,0.00,,,0.00,,2013-02-20 23:22:00,
2013-02-20 17:31:00,53.0,50.0,29.72,ESE,113,2.0,7.0,91,0.00,,,0.00,,2013-02-20 23:31:00,
2013-02-20 17:42:00,53.0,50.0,29.72,ESE,113,2.0,7.0,91,0.00,,,0.00,,2013-02-20 23:42:00,
2013-02-20 17:52:00,54.0,51.0,29.72,ESE,106,3.0,9.0,91,0.00,,,0.00,,2013-02-20 23:52:00,
2013-02-20 18:03:00,55.0,53.0,29.71,ESE,114,0.0,7.0,92,0.01,,,0.01,,2013-02-21 00:03:00,
2013-02-20 18:11:00,55.0,53.0,29.71,ESE,114,0.0,7.0,92,0.01,,,0.01,,2013-02-21 00:11:00,
2013-02-20 18:21:00,56.0,54.0,29.71,ESE,107,4.0,11.0,93,0.01,,,0.01,,2013-02-21 00:21:00,
2013-02-20 18:32:00,57.0,55.0,29.71,SE,128,10.0,18.0,93,0.01,,,0.01,,2013-02-21 00:32:00,
2013-02-20 18:42:00,57.0,55.0,29.71,SE,128,10.0,18.0,93,0.01,,,0.01,,2013-02-21 00:42:00,
2013-02-20 18:52:00,57.0,55.0,29.70,SE,128,7.0,16.0,93,0.01,,,0.01,,2013-02-21 00:52:00,
2013-02-20 19:01:00,58.0,56.0,29.70,ESE,120,6.0,16.0,93,0.01,,,0.02,,2013-02-21 01:01:00,
2013-02-20 19:11:00,58.0,56.0,29.70,ESE,120,6.0,16.0,93,0.01,,,0.02,,2013-02-21 01:11:00,
2013-02-20 19:21:00,58.0,56.0,29.68,SE,125,9.0,19.0,94,0.01,,,0.02,,2013-02-21 01:21:00,
2013-02-20 19:32:00,58.0,56.0,29.68,ESE,123,7.0,15.0,94,0.01,,,0.02,,2013-02-21 01:32:00,
2013-02-20 19:41:00,58.0,56.0,29.68,ESE,123,7.0,15.0,94,0.01,,,0.02,,2013-02-21 01:41:00,
2013-02-20 19:52:00,58.0,56.0,29.68,SSE,148,8.0,18.0,94,0.01,,,0.02,,2013-02-21 01:52:00,
2013-02-20 20:01:00,58.0,56.0,29.68,SE,134,5.0,16.0,94,0.00,,,0.02,,2013-02-21 02:01:00,
2013-02-20 20:11:00,58.0,56.0,29.68,SE,134,5.0,16.0,94,0.00,,,0.02,,2013-02-21 02:11:00,
2013-02-20 20:21:00,59.0,57.0,29.67,SE,132,6.0,16.0,94,0.00,,,0.02,,2013-02-21 02:21:00,
2013-02-20 20:32:00,59.0,57.0,29.67,SE,128,7.0,18.0,94,0.00,,,0.02,,2013-02-21 02:32:00,
2013-02-20 20:42:00,59.0,57.0,29.67,SE,128,7.0,18.0,94,0.00,,,0.02,,2013-02-21 02:42:00,
2013-02-20 20:52:00,59.0,57.0,29.67,SE,128,7.0,18.0,94,0.00,,,0.02,,2013-02-21 02:52:00,
2013-02-20 21:01:00,59.0,57.0,29.66,SSE,157,6.0,14.0,94,0.00,,,0.02,,2013-02-21 03:01:00,
2013-02-20 21:12:00,59.0,57.0,29.66,SSE,157,6.0,14.0,94,0.00,,,0.02,,2013-02-21 03:12:00,
2013-02-20 21:21:00,59.0,57.0,29.65,SE,136,7.0,15.0,94,0.00,,,0.02,,2013-02-21 03:21:00,
2013-02-20 21:32:00,60.0,58.0,29.64,SE,134,8.0,16.0,94,0.00,,,0.02,,2013-02-21 03:32:00,
2013-02-20 21:41:00,60.0,58.0,29.64,SE,134,8.0,16.0,94,0.00,,,0.02,,2013-02-21 03:41:00,
2013-02-20 21:51:00,60.0,59.0,29.63,SE,142,10.0,18.0,95,0.00,,,0.02,,2013-02-21 03:51:00,
2013-02-20 22:01:00,60.0,58.0,29.62,SE,125,11.0,23.0,94,0.00,,,0.02,,2013-02-21 04:01:00,
2013-02-20 22:11:00,60.0,58.0,29.62,SE,125,11.0,23.0,94,0.00,,,0.02,,2013-02-21 04:11:00,
2013-02-20 22:22:00,60.0,58.0,29.62,SE,125,11.0,23.0,94,0.00,,,0.02,,2013-02-21 04:22:00,
2013-02-20 22:32:00,60.0,59.0,29.62,ESE,121,8.0,15.0,95,0.00,,,0.02,,2013-02-21 04:32:00,
2013-02-20 22:42:00,60.0,59.0,29.62,ESE,121,8.0,15.0,95,0.00,,,0.02,,2013-02-21 04:42:00,
2013-02-20 22:52:00,60.0,59.0,29.62,SE,137,9.0,15.0,95,0.00,,,0.02,,2013-02-21 04:52:00,
2013-02-20 23:02:00,61.0,60.0,29.61,SE,125,9.0,19.0,95,0.00,,,0.02,,2013-02-21 05:02:00,
2013-02-20 23:12:00,61.0,60.0,29.61,SE,125,9.0,19.0,95,0.00,,,0.02,,2013-02-21 05:12:00,
2013-02-20 23:22:00,62.0,61.0,29.60,SE,144,9.0,16.0,95,0.00,,,0.02,,2013-02-21 05:22:00,
2013-02-20 23:34:00,62.0,61.0,29.60,SE,137,12.0,20.0,95,0.00,,,0.02,,2013-02-21 05:34:00,
2013-02-20 23:44:00,62.0,61.0,29.60,SE,137,12.0,20.0,95,0.00,,,0.02,,2013-02-21 05:44:00,
2013-02-20 23:52:00,62.0,61.0,29.59,SE,125,10.0,18.0,95,0.01,,,0.03,,2013-02-21 05:52:00,